TimeCST,TemperatureF,Dew PointF,Humidity,Sea Level PressureIn,VisibilityMPH,Wind Direction,Wind SpeedMPH,Gust SpeedMPH,PrecipitationIn,Events,Conditions,WindDirDegrees,DateUTC
12:15 AM,46.4,32.0,57,30.16,10.0,East,5.8,-,N/A,,Scattered Clouds,90,2013-02-20 06:15:00
12:35 AM,46.4,33.8,62,30.17,10.0,East,6.9,-,N/A,,Light Drizzle,100,2013-02-20 06:35:00
12:55 AM,44.6,33.8,66,30.16,10.0,East,5.8,-,N/A,Rain,Light Rain,90,2013-02-20 06:55:00
1:15 AM,42.8,33.8,70,30.16,10.0,East,5.8,-,0.01,Rain,Rain,90,2013-02-20 07:15:00
1:35 AM,41.0,33.8,76,30.15,10.0,East,5.8,-,0.03,Rain,Light Rain,90,2013-02-20 07:35:00
1:55 AM,41.0,35.6,81,30.16,7.0,East,6.9,-,0.05,Rain,Light Rain,90,2013-02-20 07:55:00
2:15 AM,41.0,35.6,81,30.15,7.0,East,8.1,-,0.02,Rain,Light Rain,90,2013-02-20 08:15:00
2:55 AM,39.2,35.6,87,30.13,10.0,East,9.2,-,0.04,,Overcast,80,2013-02-20 08:55:00
3:15 AM,41.0,35.6,81,30.22,7.0,Calm,Calm,-,0.02,Rain,Rain,0,2013-02-20 09:15:00
3:35 AM,41.0,37.4,87,30.16,7.0,East,8.1,-,0.06,Rain,Rain,90,2013-02-20 09:35:00
3:55 AM,41.0,37.4,87,30.14,7.0,East,11.5,-,0.11,Rain,Light Rain,100,2013-02-20 09:55:00
4:15 AM,39.2,37.4,93,30.11,7.0,East,12.7,16.1,0.05,Rain,Rain,90,2013-02-20 10:15:00
4:35 AM,39.2,37.4,93,30.09,4.0,East,13.8,18.4,0.09,Rain,Light Rain,90,2013-02-20 10:35:00
4:55 AM,37.4,37.4,100,30.07,10.0,East,12.7,-,0.09,Rain,Light Rain,80,2013-02-20 10:55:00
5:15 AM,37.4,35.6,93,30.05,10.0,East,15.0,18.4,N/A,,Overcast,80,2013-02-20 11:15:00
5:35 AM,37.4,35.6,93,30.06,10.0,East,9.2,-,N/A,,Overcast,80,2013-02-20 11:35:00
5:55 AM,39.2,37.4,93,30.08,10.0,East,12.7,17.3,N/A,,Overcast,80,2013-02-20 11:55:00
6:15 AM,39.2,37.4,93,30.07,10.0,ENE,13.8,-,N/A,,Overcast,70,2013-02-20 12:15:00
6:35 AM,39.2,35.6,87,30.11,10.0,ENE,11.5,-,N/A,,Overcast,60,2013-02-20 12:35:00
7:15 AM,39.2,37.4,93,30.18,10.0,NNE,8.1,-,N/A,,Mostly Cloudy,20,2013-02-20 13:15:00
7:35 AM,35.6,35.6,100,30.12,7.0,ENE,15.0,-,N/A,Rain,Light Rain,70,2013-02-20 13:35:00
7:55 AM,37.4,35.6,93,30.12,7.0,East,17.3,21.9,0.02,Rain,Light Rain,80,2013-02-20 13:55:00
8:35 AM,37.4,35.6,93,30.10,10.0,East,18.4,23.0,N/A,,Overcast,80,2013-02-20 14:35:00
8:55 AM,37.4,35.6,93,30.12,10.0,East,17.3,25.3,N/A,,Overcast,80,2013-02-20 14:55:00
9:15 AM,37.4,37.4,100,30.13,10.0,ENE,15.0,-,N/A,,Overcast,70,2013-02-20 15:15:00
9:35 AM,39.2,37.4,93,30.09,10.0,East,17.3,24.2,N/A,,Overcast,80,2013-02-20 15:35:00
9:55 AM,41.0,37.4,87,30.08,10.0,East,18.4,27.6,N/A,,Overcast,90,2013-02-20 15:55:00
10:15 AM,41.0,37.4,87,30.06,10.0,East,20.7,28.8,N/A,,Overcast,90,2013-02-20 16:15:00
10:35 AM,41.0,37.4,87,30.06,10.0,East,15.0,26.5,N/A,,Overcast,90,2013-02-20 16:35:00
10:55 AM,41.0,37.4,87,30.06,10.0,East,18.4,28.8,N/A,,Overcast,90,2013-02-20 16:55:00
11:15 AM,41.0,37.4,87,30.07,10.0,East,16.1,26.5,N/A,,Overcast,90,2013-02-20 17:15:00
11:35 AM,41.0,37.4,87,30.06,10.0,East,18.4,25.3,N/A,,Mostly Cloudy,100,2013-02-20 17:35:00
11:55 AM,41.0,37.4,87,30.04,10.0,ESE,18.4,26.5,N/A,,Mostly Cloudy,110,2013-02-20 17:55:00
12:15 PM,41.0,37.4,87,30.04,10.0,East,13.8,23.0,N/A,,Overcast,100,2013-02-20 18:15:00
12:35 PM,42.8,37.4,81,30.03,10.0,ESE,16.1,21.9,N/A,,Overcast,110,2013-02-20 18:35:00
12:55 PM,42.8,37.4,81,30.01,10.0,ESE,19.6,24.2,N/A,,Overcast,110,2013-02-20 18:55:00
1:15 PM,42.8,35.6,76,30.00,10.0,ESE,20.7,25.3,N/A,,Overcast,110,2013-02-20 19:15:00
1:35 PM,42.8,35.6,76,30.00,10.0,ESE,13.8,23.0,N/A,,Overcast,110,2013-02-20 19:35:00
1:55 PM,41.0,35.6,81,29.99,10.0,East,16.1,21.9,N/A,,Overcast,100,2013-02-20 19:55:00
2:15 PM,41.0,35.6,81,29.98,10.0,East,13.8,21.9,N/A,,Overcast,100,2013-02-20 20:15:00
2:35 PM,41.0,35.6,81,29.96,10.0,East,18.4,24.2,N/A,,Overcast,100,2013-02-20 20:35:00
2:55 PM,42.8,35.6,76,29.95,10.0,East,19.6,24.2,N/A,,Overcast,100,2013-02-20 20:55:00
3:15 PM,42.8,35.6,76,29.94,10.0,East,20.7,27.6,N/A,,Overcast,100,2013-02-20 21:15:00
3:35 PM,41.0,33.8,76,29.94,10.0,East,20.7,26.5,N/A,,Overcast,100,2013-02-20 21:35:00